Home   Weather   Glennallen   Past weeks

Flag for USA Past Weather in Glennallen, Alaska, USA — Yesterday and Last 2 Weeks

Now
-28 °F

Clear.


Feels Like: -40 °F
Forecast: -22 / -6 °F
Wind: 3 mph from Northwest

Location: Gulkana Airport

Current Time: Jan 23, 2017 at 6:04:50 am

Latest Report: Jan 23, 2017 at 4:53 am


Visibility: 10 mi

Pressure: 29.89 "Hg

Humidity: 64%

Dew Point: -36 °F

Location of GlennallenLocation

Past Weather in Glennallen — Graph

°F

Glennallen Temperature Yesterday

Maximum temperature yesterday: -9 °F (at 6:53 pm)
Minimum temperature yesterday: -33 °F (at 7:53 am)
Average temperature yesterday: -21 °F

High & Low Weather Summary for the Past Weeks

 TemperatureHumidityPressure
High44 °F (Jan 14, 4:53 pm)83% (Jan 17, 4:53 am)30.75 "Hg (Jan 17, 4:53 am)
Low-33 °F (Jan 22, 7:53 am)50% (Jan 9, 1:53 pm)28.58 "Hg (Jan 16, 1:17 pm)
Average-9 °F68%29.69 "Hg
* Reported Jan 8 3:53 am — Jan 23 3:53 am, Glennallen, Weather by CustomWeather, © 2017

Note: Actual official high and low records may vary slightly from our data, if they occured in-between our weather recording intervals... More about our weather records

Advertising

Glennallen Weather History for the Previous 24 Hours

Scroll right to see more
 ConditionsComfort  
Time TempWeatherWind HumidityBarometerVisibility
3:53 am
Mon, Jan 23
-27 °FClear.3 mph64%29.89 "Hg10 mi
2:53 am-25 °FClear.No wind61%29.89 "Hg10 mi
1:53 am-24 °FClear.No wind64%29.89 "Hg10 mi
12:53 am-22 °FClear.3 mph65%29.89 "Hg10 mi
11:53 pm
Sun, Jan 22
-20 °FClear.3 mph66%29.90 "Hg10 mi
10:53 pm-16 °FPassing clouds.No wind70%29.89 "Hg10 mi
9:53 pm-13 °FClear.No wind67%29.90 "Hg10 mi
8:53 pm-12 °FPassing clouds.3 mph66%29.90 "Hg10 mi
7:53 pm-12 °FPassing clouds.3 mph70%29.90 "Hg10 mi
6:53 pm-9 °FOvercast.No wind61%29.90 "Hg10 mi
5:53 pm-11 °FOvercast.No wind67%29.91 "Hg10 mi
4:53 pm-11 °FOvercast.No wind63%29.92 "Hg10 mi
3:53 pm-11 °FOvercast.No wind63%29.92 "Hg10 mi
2:53 pm-13 °FSunny.No wind63%29.94 "Hg10 mi
1:53 pm-14 °FPassing clouds.No wind63%29.95 "Hg10 mi
12:53 pm-16 °FSunny.No wind66%29.95 "Hg10 mi
11:53 am-22 °FSunny.No wind62%29.98 "Hg10 mi
10:53 am-27 °FSunny.No wind61%29.98 "Hg10 mi
9:53 am-31 °FSunny.No windN/A29.98 "Hg10 mi
8:53 am-31 °FClear.No windN/A29.96 "Hg10 mi
7:53 am-33 °FClear.3 mphN/A29.96 "Hg10 mi
6:53 am-29 °FClear.3 mphN/A29.95 "Hg10 mi
Weather by CustomWeather, © 2017

See weather overviewHow to use our weather pages